EHI
4 3 5 8 10 11 10 12 14 14 11 8 5 3 3 4 5 4 4 3 3 2 3 5 7 9 8 5 2 1 1 1 1 0 0 0 0 0 0 0 0 0 0
5 5 5 7 8 8 7 7 9 10 8 5 2 2 1 2 3 4 3 2 1 1 2 4 6 7 7 5 3 2 1 1 0 1 1 0 0 0 0 0 0 0 0
5 5 3 3 3 3 2 3 5 6 5 3 2 1 1 1 1 2 2 1 0 1 1 2 3 4 5 5 3 3 2 0 0 1 1 0 0 0 0 0 0 0 0
3 2 1 0 0 0 0 1 3 5 6 5 4 4 3 1 1 1 1 0 0 1 1 0 1 1 2 2 2 2 2 1 0 1 1 0 0 0 0 0 0 0 0
1 0 0 0 0 0 0 1 3 5 5 6 6 5 3 1 0 0 0 0 0 0 0 0 0 0 0 0 1 1 1 1 1 1 1 1 0 0 0 0 0 0 0
0 0 0 0 0 0 0 1 2 3 3 3 3 2 1 0 0 0 0 0 0 0 0 0 0 0 0 0 1 2 2 1 2 2 2 2 1 1 0 0 0 0 0
0 0 0 0 0 0 0 0 1 1 1 1 0 0 0 0 0 0 0 0 0 0 0 0 0 0 0 0 1 2 2 2 1 1 2 4 5 4 3 1 1 1 2
0 0 0 0 0 0 0 0 0 0 0 0 0 0 0 0 0 0 0 0 0 0 0 0 0 0 0 0 0 1 1 1 1 1 3 6 9 10 7 4 3 4 4
0 0 0 0 0 0 0 0 0 0 0 0 0 0 0 0 0 0 0 0 0 0 0 0 0 0 0 0 0 0 0 0 0 1 3 6 11 13 12 9 7 6 5
0 0 0 0 0 0 0 0 0 0 0 0 0 0 0 0 0 0 0 0 0 0 0 0 0 0 0 0 0 0 0 0 0 0 1 4 8 13 15 13 11 9 7
0 0 0 0 0 0 0 0 0 0 0 0 0 0 0 0 0 0 0 0 0 0 0 0 0 0 0 0 0 0 0 0 0 0 0 1 4 9 13 13 12 11 12
0 0 0 0 0 0 0 0 0 0 0 0 0 0 0 0 0 0 0 0 0 0 0 0 0 0 0 0 0 0 0 0 0 0 0 0 1 3 6 9 9 9 11
0 0 0 0 0 0 0 0 0 0 0 0 0 0 0 0 0 0 0 0 0 0 0 0 0 0 0 0 0 0 0 0 0 0 0 0 0 0 2 3 5 5 5
0 0 0 0 0 0 0 0 0 0 0 0 0 0 0 0 0 0 0 0 0 0 0 0 0 0 0 0 0 0 0 0 0 0 0 0 0 0 0 0 1 2 1
0 0 0 0 0 0 0 0 0 0 0 0 0 0 0 0 0 0 0 0 0 0 0 1 0 0 0 0 0 0 0 0 0 0 0 0 0 0 0 0 0 0 0
0 0 0 0 0 0 0 0 0 0 0 0 0 0 0 0 0 0 0 0 0 0 0 0 0 0 0 0 0 0 0 0 0 0 0 0 0 0 0 0 0 0 0
0 0 0 0 0 0 0 0 0 0 0 0 0 0 0 0 0 0 0 0 0 0 0 0 0 0 0 0 0 0 0 0 0 0 0 0 0 0 0 0 0 0 0
0 0 0 0 0 0 0 0 0 0 0 0 0 0 0 0 0 0 0 0 0 0 0 0 0 0 0 0 0 0 0 0 0 0 0 0 0 0 0 0 0 0 0
0 0 0 0 0 0 0 0 0 0 0 0 0 0 0 0 0 0 0 0 0 0 0 0 0 0 0 0 0 0 0 0 0 0 0 0 0 0 0 0 0 0 0
0 0 0 0 0 0 0 0 0 0 0 0 0 0 0 0 0 0 0 0 0 0 0 0 0 0 0 0 0 0 0 0 0 0 0 0 0 0 0 0 0 0 0
0 0 0 0 0 0 0 0 0 0 0 0 0 0 0 0 0 0 0 0 0 0 0 0 0 0 0 0 0 0 0 0 0 0 0 0 0 0 0 0 0 0 0
0 0 0 0 0 0 0 0 0 0 0 0 0 0 0 0 0 0 0 0 0 0 0 0 0 0 0 0 0 0 0 0 0 0 0 0 0 0 0 0 0 0 0
0 0 0 0 0 0 0 0 0 0 0 0 0 0 0 0 0 0 0 0 0 0 0 0 0 0 0 0 0 0 0 0 0 0 0 0 0 0 0 0 0 0 0
0 0 0 0 0 0 0 0 0 0 0 0 0 0 0 0 0 0 0 0 0 0 0 0 0 0 0 0 0 0 0 0 0 0 0 0 0 0 0 0 0 0 0
0 0 0 0 0 0 0 0 0 0 0 0 0 0 0 0 0 0 0 0 0 0 0 0 0 0 0 0 0 0 0 0 0 0 0 0 0 0 0 0 0 0 0
0 0 0 0 0 0 0 0 0 0 0 0 0 0 0 0 0 0 0 0 0 0 0 0 0 0 0 0 0 0 0 0 0 0 0 0 0 0 0 0 0 0 0
Wind_Speed
6 5 4 3 3 3 2 1 1 1 2 3 4 4 4 4 4 4 4 5 5 4 4 4 2 3 5 6 6 5 6 6 5 5 6 7 9 7 6 7 7 8 8
5 4 3 3 3 3 2 0 1 2 3 3 4 4 4 4 4 4 3 4 4 5 4 4 3 4 4 5 5 5 5 5 5 5 6 6 6 6 6 5 6 6 6
4 4 4 3 3 2 1 1 2 3 4 5 4 3 4 4 3 3 3 3 4 4 4 5 4 5 5 5 6 6 7 6 5 6 6 5 4 3 5 5 5 5 4
3 2 2 2 1 1 1 1 3 4 4 5 5 6 5 5 4 3 3 4 4 4 4 4 4 5 6 6 6 7 6 7 7 6 6 7 5 4 3 7 7 6 6
1 0 0 1 2 2 3 3 4 4 5 6 6 7 7 6 5 4 3 4 3 3 3 3 4 4 5 6 6 6 7 7 9 7 6 7 6 7 6 4 5 6 6
2 2 3 3 4 5 5 5 6 6 6 7 8 8 9 9 8 7 5 5 3 3 3 3 3 3 4 5 6 7 9 9 9 8 7 7 7 7 7 6 6 5 4
4 4 5 6 7 8 8 8 8 9 9 9 9 10 10 10 10 10 7 7 6 4 3 4 3 4 3 4 5 6 7 9 10 9 8 8 8 6 6 7 6 5 4
5 6 7 8 9 9 9 9 9 10 11 11 10 10 11 11 10 10 10 9 7 7 5 5 5 5 5 5 5 5 6 6 8 10 10 8 8 6 6 7 6 6 6
7 8 9 10 10 10 10 10 11 11 12 12 12 12 12 12 12 12 12 11 9 9 8 8 8 7 6 6 6 5 6 6 7 8 8 8 7 7 7 7 6 7 6
9 10 10 11 11 10 11 11 12 13 13 14 13 12 12 13 12 13 13 13 12 12 11 11 11 10 9 8 8 7 7 7 7 6 7 7 6 6 7 7 7 6 7
11 12 12 11 11 12 13 13 13 14 13 14 13 14 14 15 15 14 14 14 13 13 13 13 13 12 11 10 9 9 8 9 9 8 7 8 7 6 6 6 6 7 7
12 13 13 13 13 14 14 15 15 15 15 15 14 15 15 15 15 16 15 14 14 14 14 14 14 14 13 12 12 11 10 10 10 9 8 8 6 7 6 6 7 6 6
14 14 13 13 14 15 15 16 16 16 16 16 16 16 16 16 16 16 16 15 15 15 15 15 15 15 15 14 13 13 12 11 11 10 10 9 9 8 7 7 7 6 6
14 14 14 14 15 15 16 16 16 16 17 16 17 17 17 17 17 17 16 16 16 15 16 16 15 15 16 15 15 14 13 12 11 11 10 10 10 10 9 8 8 7 7
15 15 15 15 16 16 16 16 16 16 16 16 17 17 17 17 16 16 16 16 16 16 16 16 16 16 15 15 15 14 14 14 13 12 11 11 10 8 7 7 8 8 7
16 17 17 17 17 17 16 16 16 16 16 16 17 17 17 17 17 16 16 15 15 15 15 15 15 15 14 13 13 13 14 13 13 12 12 11 11 11 11 11 10 8 9
17 18 18 17 16 16 16 16 16 16 16 16 17 17 17 17 16 16 16 16 15 15 14 15 15 15 14 10 12 14 13 14 13 12 11 11 10 11 11 13 15 14 13
17 17 17 17 17 17 16 16 16 16 16 16 16 16 17 17 16 15 15 15 13 13 12 13 14 13 13 12 13 13 15 15 14 13 13 12 11 10 10 11 12 13 14
16 16 17 17 17 17 16 16 16 16 16 16 15 16 16 16 16 16 15 13 12 12 11 11 12 12 11 11 13 13 12 13 15 14 14 13 12 8 7 10 11 11 11
15 15 16 16 16 15 16 16 16 16 16 16 15 16 16 16 16 15 14 12 11 11 11 11 10 11 11 11 14 15 11 12 12 12 12 11 11 6 10 11 11 12 11
16 16 16 15 14 15 15 15 15 15 15 16 16 16 16 15 15 13 12 11 10 10 9 10 9 9 10 11 14 15 11 11 11 10 10 9 14 10 10 10 10 9 8
16 16 14 14 14 14 14 15 15 15 15 15 15 16 15 14 11 11 11 10 9 9 8 8 8 7 8 9 12 16 15 10 10 9 8 6 13 11 10 9 8 6 6
15 14 15 15 14 13 13 14 14 14 14 14 15 15 14 12 11 10 10 9 7 6 6 6 6 6 6 7 11 15 15 12 10 7 2 5 9 8 9 11 8 7 8
14 14 15 15 15 14 13 13 13 13 13 14 14 13 12 11 11 8 7 6 5 5 5 5 5 5 5 5 7 10 11 12 11 9 7 8 7 7 5 6 9 8 8
13 13 13 14 15 14 14 13 13 12 13 13 12 12 10 10 9 7 5 6 5 4 5 4 4 3 3 2 4 5 7 8 8 8 7 8 8 9 8 7 7 7 7
14 14 14 15 15 14 14 13 13 12 12 11 11 9 8 8 7 7 5 2 2 3 2 3 4 2 2 4 4 3 2 2 4 6 7 8 8 8 7 7 7 7 7
Wind_Direction
73 71 71 78 95 97 95 76 340 306 283 285 291 292 293 294 293 292 293 293 290 287 278 280 252 236 241 245 247 243 232 235 236 249 249 238 233 236 239 237 241 229 230
89 83 86 93 95 98 99 177 272 294 288 289 285 286 294 293 299 306 303 300 303 298 283 278 265 250 249 245 248 244 255 245 218 242 255 244 210 208 221 216 220 228 216
87 87 85 85 89 87 56 4 334 312 302 298 285 280 266 267 279 296 299 304 304 301 298 288 278 266 257 249 240 240 238 246 233 232 251 259 250 180 180 205 210 210 225
97 90 90 72 47 20 346 329 305 302 300 292 298 304 306 310 315 306 317 313 310 312 314 306 287 273 265 259 248 237 241 242 242 219 235 263 311 275 193 187 188 201 219
131 160 260 316 315 305 304 300 299 296 293 293 293 290 297 303 302 302 303 303 310 305 310 311 305 292 282 275 265 259 245 238 243 239 221 218 218 240 261 215 188 196 207
251 258 266 277 288 292 291 292 294 292 290 289 292 290 295 295 296 291 290 282 285 289 297 296 294 286 284 282 273 262 247 246 246 249 243 226 219 220 226 228 219 216 208
273 277 285 293 296 296 298 300 299 296 294 289 286 284 283 282 275 277 278 274 279 273 263 278 277 278 276 276 273 268 269 255 247 240 241 241 240 239 235 236 229 224 213
287 290 296 297 298 301 305 306 307 306 302 296 291 285 280 276 276 273 280 280 278 278 272 249 248 255 259 259 258 263 260 265 260 251 247 246 242 238 237 240 240 230 222
307 305 307 307 309 310 312 312 310 305 302 300 296 286 280 279 282 282 269 269 266 266 254 245 242 239 239 246 252 257 255 253 254 261 256 250 247 238 233 234 239 243 242
317 320 318 317 318 315 312 310 307 303 302 298 296 293 291 284 278 274 277 276 275 269 262 252 246 242 237 234 240 250 247 248 245 246 253 252 255 248 237 230 230 235 249
323 323 319 317 315 312 311 311 309 306 302 300 297 295 291 288 284 277 272 268 265 264 258 252 248 244 240 235 231 244 247 245 247 242 242 243 244 248 242 233 229 227 230
318 317 317 316 313 313 314 312 310 306 303 301 298 294 291 288 285 280 277 273 266 259 256 252 250 246 242 236 232 236 241 241 243 240 237 241 239 242 241 236 232 229 227
320 318 317 316 314 314 313 311 308 306 305 303 300 297 294 290 286 283 280 275 269 262 258 254 249 247 245 239 234 234 237 239 241 240 235 234 231 233 235 233 231 228 227
319 318 318 315 315 313 311 310 307 307 305 304 301 297 294 292 289 286 282 277 270 264 258 252 247 245 242 239 235 231 232 235 238 238 238 237 231 229 227 229 228 225 224
320 320 318 317 315 313 312 309 308 308 307 303 299 297 296 294 291 288 285 281 275 268 260 254 248 243 240 235 232 232 229 229 233 233 234 236 236 238 233 238 229 220 218
322 321 319 317 315 314 311 310 309 308 305 301 299 299 298 294 290 287 284 280 276 272 267 260 252 245 241 227 212 224 234 229 229 232 231 233 220 221 221 235 242 240 230
322 320 319 316 315 312 313 310 308 306 303 300 298 298 296 294 292 290 288 283 279 273 267 261 253 245 243 229 203 211 232 233 230 230 229 234 225 209 222 217 218 228 236
319 319 317 316 315 316 315 312 309 306 304 302 302 303 302 298 296 293 288 285 280 274 270 263 256 249 240 216 206 205 224 235 231 228 228 231 240 228 228 233 224 223 220
319 317 317 316 317 316 316 314 310 308 307 306 307 307 306 302 298 293 289 287 281 274 266 261 255 247 239 210 198 202 225 228 230 228 227 227 230 214 202 237 242 235 229
320 319 317 315 316 319 318 313 310 309 308 310 309 306 302 299 296 293 290 286 279 273 268 260 253 245 238 211 193 201 226 228 226 224 226 219 231 199 185 228 238 237 231
320 319 317 317 320 319 315 309 309 309 310 310 306 304 301 298 295 293 290 284 278 272 268 263 254 244 237 213 192 197 224 227 224 223 219 214 186 195 195 227 245 247 250
321 322 320 320 319 316 313 310 310 310 310 308 306 304 304 303 302 298 293 286 280 274 269 260 250 238 226 218 197 195 216 238 229 228 228 198 161 181 196 218 239 250 253
322 323 323 319 317 318 317 312 311 312 310 307 306 305 305 306 305 301 298 294 282 272 270 260 248 235 221 200 190 193 205 220 235 233 204 124 148 178 205 219 221 226 230
323 326 323 319 319 320 319 314 311 312 310 308 307 307 308 308 309 306 303 301 294 286 278 273 260 241 220 204 191 192 195 202 217 224 184 166 173 220 249 200 200 220 224
324 324 321 318 318 319 318 316 316 315 311 309 308 310 311 312 311 313 318 317 323 329 308 300 293 275 234 180 168 195 199 201 204 204 206 209 201 207 211 213 210 210 208
323 323 323 321 320 320 319 319 321 319 313 310 312 313 314 316 319 323 331 17 342 1 334 313 315 327 76 104 128 149 147 138 163 205 211 212 213 214 212 208 205 205 204